Weather History for KCSM - October, 2012

Change the Weather History Date:

Tuesday, October 9, 2012

  Actual Average Record
Temperature  
Mean Temperature 62 °F -  
Max Temperature 80 °F 73 °F 88 °F (2014)
Min Temperature 46 °F 51 °F 24 °F (2000)
Degree Days  
Heating Degree Days 3    
Growing Degree Days 12 (Base 50)    
Moisture  
Dew Point 44 °F    
Average Humidity 59    
Maximum Humidity 90    
Minimum Humidity 28    
Precipitation  
Precipitation 0.00 in - - ()
Sea Level Pressure  
Sea Level Pressure 29.91 in    
Wind  
Wind Speed 14 mph (SE)    
Max Wind Speed 28 mph    
Max Gust Speed 36 mph    
Visibility 10 miles    
Events      
Averages and records for this station are not official NWS values.
T = Trace of Precipitation, MM = Missing Value Source: NWS Daily Summary

Daily Weather History Graph

Daily Weather History Graph

Search for Another Location

Airport or City:

Trip Planner

Search our weather history database for the weather conditions in past years. The results will help you decide how hot, cold, wet, or windy it might be!

Date:

Astronomy

Oct. 09, 2012 Rise Set
Actual Time 7:38 AM CDT 7:08 PM CDT
Civil Twilight 7:12 AM CDT 7:34 PM CDT
Nautical Twilight 6:43 AM CDT 8:03 PM CDT
Astronomical Twilight 6:14 AM CDT 8:33 PM CDT
Moon 1:29 AM CDT (10/9) 3:25 PM CDT (10/9)
Length of Visible Light 12h 21m
Length of Day
11h 30m
Last Quarter, 36% of the Moon is Illuminated
Oct 9
Last Quarter
Oct 15
New
Oct 21
First Quarter
Oct 29
Full
Nov 6
Last Quarter

Hourly Weather History & Observations

Time (CDT) Temp. Dew Point Humidity Pressure Visibility Wind Dir Wind Speed Gust Speed Precip Events Conditions
12:53 AM 52.0 °F 39.0 °F 61% 29.95 in 10.0 mi SSE 15.0 mph - N/A   Clear
1:53 AM 50.0 °F 39.9 °F 68% 29.93 in 10.0 mi SSE 13.8 mph - N/A   Clear
3:53 AM 48.9 °F 41.0 °F 74% 29.89 in 10.0 mi SSE 17.3 mph 24.2 mph N/A   Clear
4:53 AM 48.0 °F 42.1 °F 80% 29.87 in 10.0 mi SE 15.0 mph - N/A   Clear
5:53 AM 48.0 °F 43.0 °F 83% 29.87 in 10.0 mi SSE 13.8 mph - N/A   Clear
6:53 AM 46.9 °F 43.0 °F 86% 29.87 in 10.0 mi SSE 13.8 mph - N/A   Clear
7:53 AM 46.9 °F 44.1 °F 90% 29.88 in 10.0 mi SSE 11.5 mph 18.4 mph N/A   Clear
8:53 AM 50.0 °F 46.0 °F 86% 29.87 in 10.0 mi South 15.0 mph - N/A   Clear
9:53 AM 54.0 °F 46.9 °F 77% 29.88 in 10.0 mi South 16.1 mph 20.7 mph N/A   Clear
10:53 AM 60.1 °F 48.9 °F 67% 29.87 in 10.0 mi South 13.8 mph 19.6 mph N/A   Clear
11:53 AM 64.9 °F 50.0 °F 58% 29.86 in 10.0 mi SSW 10.4 mph 19.6 mph N/A   Clear
12:53 PM 68.0 °F 48.9 °F 50% 29.85 in 10.0 mi SSW 9.2 mph - N/A   Clear
1:53 PM 72.0 °F 48.0 °F 43% 29.84 in 10.0 mi SSW 9.2 mph - N/A   Clear
2:53 PM 73.9 °F 44.1 °F 34% 29.84 in 10.0 mi WSW 4.6 mph - N/A   Clear
3:53 PM 78.1 °F 42.1 °F 28% 29.84 in 10.0 mi North 11.5 mph - N/A   Clear
4:53 PM 78.1 °F 42.1 °F 28% 29.86 in 10.0 mi NNW 10.4 mph - N/A   Clear
5:53 PM 75.0 °F 39.9 °F 28% 29.89 in 10.0 mi North 16.1 mph 26.5 mph N/A   Clear
6:53 PM 69.1 °F 43.0 °F 39% 29.94 in 10.0 mi North 16.1 mph - N/A   Clear
7:53 PM 61.0 °F 44.1 °F 54% 29.98 in 10.0 mi NNE 15.0 mph - N/A   Clear
8:53 PM 60.1 °F 45.0 °F 57% 30.01 in 10.0 mi NNE 13.8 mph - N/A   Clear
9:53 PM 57.9 °F 45.0 °F 62% 30.04 in 10.0 mi NNE 18.4 mph - N/A   Clear
10:53 PM 57.9 °F 41.0 °F 53% 30.05 in 10.0 mi NNE 27.6 mph 35.7 mph N/A   Clear
11:53 PM 55.0 °F 41.0 °F 59% 30.09 in 10.0 mi NNE 26.5 mph - N/A   Clear